Time,TemperatureF,DewpointF,PressureIn,WindDirection,WindDirectionDegrees,WindSpeedMPH,WindSpeedGustMPH,Humidity,HourlyPrecipIn,Conditions,Clouds,dailyrainin,SoftwareType,DateUTC
2013-04-28 00:00:00,59.0,42.4,30.28,North,360,5.0,5.0,54,0.00,,,0.00,Wunderground v.1.15,2013-04-28 04:00:00,
2013-04-28 00:02:00,59.0,42.4,30.28,North,360,4.0,5.0,54,0.00,,,0.00,Wunderground v.1.15,2013-04-28 04:02:00,
2013-04-28 00:04:00,58.9,42.3,30.28,North,360,4.0,7.0,54,0.00,,,0.00,Wunderground v.1.15,2013-04-28 04:04:00,
2013-04-28 00:06:00,58.9,42.8,30.28,North,360,4.0,7.0,55,0.00,,,0.00,Wunderground v.1.15,2013-04-28 04:06:00,
2013-04-28 00:08:00,58.7,42.6,30.28,North,360,4.0,7.0,55,0.00,,,0.00,Wunderground v.1.15,2013-04-28 04:08:00,
2013-04-28 00:10:00,58.6,42.5,30.28,North,360,5.0,5.0,55,0.00,,,0.00,Wunderground v.1.15,2013-04-28 04:10:00,
2013-04-28 00:12:00,58.5,42.4,30.28,North,360,5.0,5.0,55,0.00,,,0.00,Wunderground v.1.15,2013-04-28 04:12:00,
2013-04-28 00:16:00,58.4,42.8,30.28,North,360,5.0,6.0,56,0.00,,,0.00,Wunderground v.1.15,2013-04-28 04:16:00,
2013-04-28 00:18:00,58.3,42.7,30.28,North,360,4.0,7.0,56,0.00,,,0.00,Wunderground v.1.15,2013-04-28 04:18:00,
2013-04-28 00:20:00,58.2,43.0,30.28,North,360,4.0,4.0,57,0.00,,,0.00,Wunderground v.1.15,2013-04-28 04:20:00,
2013-04-28 00:24:00,58.2,43.0,30.28,North,360,2.0,5.0,57,0.00,,,0.00,Wunderground v.1.15,2013-04-28 04:24:00,
2013-04-28 00:26:00,58.2,43.0,30.28,North,360,3.0,5.0,57,0.00,,,0.00,Wunderground v.1.15,2013-04-28 04:26:00,
2013-04-28 00:28:00,58.1,42.9,30.28,North,360,3.0,6.0,57,0.00,,,0.00,Wunderground v.1.15,2013-04-28 04:28:00,
2013-04-28 00:32:00,58.0,43.3,30.28,North,360,4.0,4.0,58,0.00,,,0.00,Wunderground v.1.15,2013-04-28 04:32:00,
2013-04-28 00:34:00,57.9,43.2,30.28,North,360,4.0,4.0,58,0.00,,,0.00,Wunderground v.1.15,2013-04-28 04:34:00,
2013-04-28 00:38:00,57.7,43.5,30.28,North,360,4.0,4.0,59,0.00,,,0.00,Wunderground v.1.15,2013-04-28 04:38:00,
2013-04-28 00:40:00,57.6,43.4,30.28,North,360,4.0,4.0,59,0.00,,,0.00,Wunderground v.1.15,2013-04-28 04:40:00,
2013-04-28 00:42:00,57.6,43.4,30.28,North,360,4.0,4.0,59,0.00,,,0.00,Wunderground v.1.15,2013-04-28 04:42:00,
2013-04-28 00:48:00,57.5,43.7,30.28,North,360,4.0,9.0,60,0.00,,,0.00,Wunderground v.1.15,2013-04-28 04:48:00,
2013-04-28 00:50:00,57.4,43.6,30.28,North,360,5.0,5.0,60,0.00,,,0.00,Wunderground v.1.15,2013-04-28 04:50:00,
2013-04-28 00:52:00,57.4,43.6,30.28,North,360,6.0,6.0,60,0.00,,,0.00,Wunderground v.1.15,2013-04-28 04:52:00,
2013-04-28 00:56:00,57.2,43.9,30.28,North,360,6.0,6.0,61,0.00,,,0.00,Wunderground v.1.15,2013-04-28 04:56:00,
2013-04-28 00:58:00,57.2,43.9,30.28,North,360,5.0,6.0,61,0.00,,,0.00,Wunderground v.1.15,2013-04-28 04:58:00,
2013-04-28 01:00:00,57.1,43.8,30.28,North,360,5.0,5.0,61,0.00,,,0.00,Wunderground v.1.15,2013-04-28 05:00:00,
2013-04-28 01:02:00,57.1,43.8,30.28,North,360,4.0,5.0,61,0.00,,,0.00,Wunderground v.1.15,2013-04-28 05:02:00,
2013-04-28 01:04:00,57.0,43.7,30.28,North,360,4.0,5.0,61,0.00,,,0.00,Wunderground v.1.15,2013-04-28 05:04:00,
2013-04-28 01:06:00,56.9,43.6,30.28,North,360,4.0,7.0,61,0.00,,,0.00,Wunderground v.1.15,2013-04-28 05:06:00,
2013-04-28 01:08:00,56.8,43.5,30.28,North,360,4.0,7.0,61,0.00,,,0.00,Wunderground v.1.15,2013-04-28 05:08:00,
2013-04-28 01:12:00,56.6,43.7,30.28,North,360,5.0,6.0,62,0.00,,,0.00,Wunderground v.1.15,2013-04-28 05:12:00,
2013-04-28 01:14:00,56.6,44.1,30.28,North,360,5.0,8.0,63,0.00,,,0.00,Wunderground v.1.15,2013-04-28 05:14:00,
2013-04-28 01:16:00,56.5,44.0,30.28,North,360,6.0,9.0,63,0.00,,,0.00,Wunderground v.1.15,2013-04-28 05:16:00,
2013-04-28 01:18:00,56.4,44.0,30.28,North,360,7.0,9.0,63,0.00,,,0.00,Wunderground v.1.15,2013-04-28 05:18:00,
2013-04-28 01:20:00,56.4,44.0,30.28,North,360,7.0,7.0,63,0.00,,,0.00,Wunderground v.1.15,2013-04-28 05:20:00,
2013-04-28 01:22:00,56.4,44.0,30.28,North,360,6.0,7.0,63,0.00,,,0.00,Wunderground v.1.15,2013-04-28 05:22:00,
2013-04-28 01:24:00,56.4,44.4,30.28,North,360,6.0,7.0,64,0.00,,,0.00,Wunderground v.1.15,2013-04-28 05:24:00,
2013-04-28 01:26:00,56.4,44.4,30.28,North,360,5.0,7.0,64,0.00,,,0.00,Wunderground v.1.15,2013-04-28 05:26:00,
2013-04-28 01:28:00,56.4,44.4,30.27,North,360,5.0,7.0,64,0.00,,,0.00,Wunderground v.1.15,2013-04-28 05:28:00,
2013-04-28 01:32:00,56.2,44.2,30.28,North,360,6.0,10.0,64,0.00,,,0.00,Wunderground v.1.15,2013-04-28 05:32:00,
2013-04-28 01:34:00,56.2,44.6,30.27,North,360,6.0,10.0,65,0.00,,,0.00,Wunderground v.1.15,2013-04-28 05:34:00,
2013-04-28 01:40:00,56.0,44.4,30.28,North,360,7.0,7.0,65,0.00,,,0.00,Wunderground v.1.15,2013-04-28 05:40:00,
2013-04-28 01:42:00,56.0,44.4,30.28,North,360,7.0,7.0,65,0.00,,,0.00,Wunderground v.1.15,2013-04-28 05:42:00,
2013-04-28 01:48:00,56.0,44.4,30.27,North,360,5.0,7.0,65,0.00,,,0.00,Wunderground v.1.15,2013-04-28 05:48:00,
2013-04-28 01:50:00,56.0,44.8,30.27,North,360,4.0,4.0,66,0.00,,,0.00,Wunderground v.1.15,2013-04-28 05:50:00,
2013-04-28 01:56:00,55.8,44.6,30.27,North,360,5.0,9.0,66,0.00,,,0.00,Wunderground v.1.15,2013-04-28 05:56:00,
2013-04-28 01:58:00,55.8,44.6,30.27,North,360,5.0,9.0,66,0.00,,,0.00,Wunderground v.1.15,2013-04-28 05:58:00,
2013-04-28 02:00:00,55.8,45.0,30.27,North,360,5.0,11.0,67,0.00,,,0.00,Wunderground v.1.15,2013-04-28 06:00:00,
2013-04-28 02:04:00,55.7,44.9,30.27,North,360,6.0,11.0,67,0.00,,,0.00,Wunderground v.1.15,2013-04-28 06:04:00,
2013-04-28 02:06:00,55.6,44.8,30.27,North,360,6.0,11.0,67,0.00,,,0.00,Wunderground v.1.15,2013-04-28 06:06:00,
2013-04-28 02:08:00,55.6,44.8,30.27,North,360,6.0,11.0,67,0.00,,,0.00,Wunderground v.1.15,2013-04-28 06:08:00,
2013-04-28 02:10:00,55.5,44.7,30.27,North,360,5.0,5.0,67,0.00,,,0.00,Wunderground v.1.15,2013-04-28 06:10:00,
2013-04-28 02:12:00,55.5,45.1,30.27,North,360,5.0,5.0,68,0.00,,,0.00,Wunderground v.1.15,2013-04-28 06:12:00,
2013-04-28 02:16:00,55.5,45.1,30.27,North,360,5.0,6.0,68,0.00,,,0.00,Wunderground v.1.15,2013-04-28 06:16:00,
2013-04-28 02:20:00,55.5,45.1,30.27,North,360,5.0,5.0,68,0.00,,,0.00,Wunderground v.1.15,2013-04-28 06:20:00,
2013-04-28 02:24:00,55.5,45.5,30.27,North,360,6.0,6.0,69,0.00,,,0.00,Wunderground v.1.15,2013-04-28 06:24:00,
2013-04-28 02:26:00,55.5,45.5,30.27,North,360,6.0,7.0,69,0.00,,,0.00,Wunderground v.1.15,2013-04-28 06:26:00,
2013-04-28 02:28:00,55.4,45.4,30.27,North,360,6.0,7.0,69,0.00,,,0.00,Wunderground v.1.15,2013-04-28 06:28:00,
2013-04-28 02:32:00,55.4,45.4,30.27,North,360,6.0,8.0,69,0.00,,,0.00,Wunderground v.1.15,2013-04-28 06:32:00,
2013-04-28 02:34:00,55.4,45.4,30.27,North,360,6.0,9.0,69,0.00,,,0.00,Wunderground v.1.15,2013-04-28 06:34:00,
2013-04-28 02:36:00,55.5,45.5,30.27,North,360,6.0,9.0,69,0.00,,,0.00,Wunderground v.1.15,2013-04-28 06:36:00,
2013-04-28 02:42:00,55.5,45.1,30.27,North,360,5.0,10.0,68,0.00,,,0.00,Wunderground v.1.15,2013-04-28 06:42:00,
2013-04-28 02:46:00,55.5,45.1,30.27,North,360,4.0,10.0,68,0.00,,,0.00,Wunderground v.1.15,2013-04-28 06:46:00,
2013-04-28 02:48:00,55.5,44.7,30.27,North,360,4.0,10.0,67,0.00,,,0.00,Wunderground v.1.15,2013-04-28 06:48:00,
2013-04-28 02:52:00,55.5,44.7,30.27,North,360,4.0,5.0,67,0.00,,,0.00,Wunderground v.1.15,2013-04-28 06:52:00,
2013-04-28 02:54:00,55.5,44.7,30.27,North,360,4.0,5.0,67,0.00,,,0.00,Wunderground v.1.15,2013-04-28 06:54:00,
2013-04-28 02:56:00,55.5,44.7,30.27,North,360,4.0,5.0,67,0.00,,,0.00,Wunderground v.1.15,2013-04-28 06:56:00,
2013-04-28 02:58:00,55.5,45.1,30.27,North,360,3.0,5.0,68,0.00,,,0.00,Wunderground v.1.15,2013-04-28 06:58:00,
2013-04-28 03:00:00,55.5,45.1,30.27,North,360,3.0,3.0,68,0.00,,,0.00,Wunderground v.1.15,2013-04-28 07:00:00,
2013-04-28 03:02:00,55.5,45.1,30.27,North,360,3.0,3.0,68,0.00,,,0.00,Wunderground v.1.15,2013-04-28 07:02:00,
2013-04-28 03:06:00,55.6,45.2,30.27,North,360,2.0,5.0,68,0.00,,,0.00,Wunderground v.1.15,2013-04-28 07:06:00,
2013-04-28 03:08:00,55.6,45.2,30.27,North,360,3.0,5.0,68,0.00,,,0.00,Wunderground v.1.15,2013-04-28 07:08:00,
2013-04-28 03:12:00,55.7,45.3,30.27,North,360,3.0,4.0,68,0.00,,,0.00,Wunderground v.1.15,2013-04-28 07:12:00,
2013-04-28 03:14:00,55.7,45.3,30.27,North,360,3.0,4.0,68,0.00,,,0.00,Wunderground v.1.15,2013-04-28 07:14:00,
2013-04-28 03:16:00,55.7,45.3,30.27,North,360,2.0,4.0,68,0.00,,,0.00,Wunderground v.1.15,2013-04-28 07:16:00,
2013-04-28 03:18:00,55.7,45.3,30.27,North,360,2.0,4.0,68,0.00,,,0.00,Wunderground v.1.15,2013-04-28 07:18:00,
2013-04-28 03:22:00,55.6,44.8,30.26,North,360,2.0,3.0,67,0.00,,,0.00,Wunderground v.1.15,2013-04-28 07:22:00,
2013-04-28 03:26:00,55.5,44.7,30.26,North,360,3.0,6.0,67,0.00,,,0.00,Wunderground v.1.15,2013-04-28 07:26:00,
2013-04-28 03:28:00,55.4,44.6,30.25,North,360,3.0,6.0,67,0.00,,,0.00,Wunderground v.1.15,2013-04-28 07:28:00,
2013-04-28 03:30:00,55.4,44.6,30.25,North,360,3.0,3.0,67,0.00,,,0.00,Wunderground v.1.15,2013-04-28 07:30:00,
2013-04-28 03:36:00,55.3,44.5,30.25,North,360,3.0,7.0,67,0.00,,,0.00,Wunderground v.1.15,2013-04-28 07:36:00,
2013-04-28 03:38:00,55.3,44.5,30.25,North,360,3.0,7.0,67,0.00,,,0.00,Wunderground v.1.15,2013-04-28 07:38:00,
2013-04-28 03:40:00,55.3,44.5,30.25,North,360,3.0,3.0,67,0.00,,,0.00,Wunderground v.1.15,2013-04-28 07:40:00,
2013-04-28 03:42:00,55.3,44.5,30.25,North,360,3.0,3.0,67,0.00,,,0.00,Wunderground v.1.15,2013-04-28 07:42:00,
2013-04-28 03:46:00,55.3,44.9,30.25,North,360,2.0,3.0,68,0.00,,,0.00,Wunderground v.1.15,2013-04-28 07:46:00,
2013-04-28 03:48:00,55.3,44.9,30.25,North,360,2.0,3.0,68,0.00,,,0.00,Wunderground v.1.15,2013-04-28 07:48:00,
2013-04-28 03:50:00,55.3,44.9,30.25,North,360,2.0,4.0,68,0.00,,,0.00,Wunderground v.1.15,2013-04-28 07:50:00,
2013-04-28 03:52:00,55.3,44.9,30.25,North,360,2.0,6.0,68,0.00,,,0.00,Wunderground v.1.15,2013-04-28 07:52:00,
2013-04-28 03:56:00,55.2,44.8,30.24,North,360,3.0,6.0,68,0.00,,,0.00,Wunderground v.1.15,2013-04-28 07:56:00,
2013-04-28 04:00:00,55.2,45.2,30.24,North,360,4.0,4.0,69,0.00,,,0.00,Wunderground v.1.15,2013-04-28 08:00:00,
2013-04-28 04:04:00,55.2,45.2,30.24,North,360,3.0,5.0,69,0.00,,,0.00,Wunderground v.1.15,2013-04-28 08:04:00,
2013-04-28 04:06:00,55.2,44.8,30.24,North,360,3.0,5.0,68,0.00,,,0.00,Wunderground v.1.15,2013-04-28 08:06:00,
2013-04-28 04:08:00,55.2,44.8,30.24,North,360,3.0,5.0,68,0.00,,,0.00,Wunderground v.1.15,2013-04-28 08:08:00,
2013-04-28 04:10:00,55.1,44.7,30.24,North,360,3.0,4.0,68,0.00,,,0.00,Wunderground v.1.15,2013-04-28 08:10:00,
2013-04-28 04:14:00,55.0,44.6,30.24,North,360,3.0,4.0,68,0.00,,,0.00,Wunderground v.1.15,2013-04-28 08:14:00,
2013-04-28 04:16:00,54.8,44.8,30.24,North,360,3.0,4.0,69,0.00,,,0.00,Wunderground v.1.15,2013-04-28 08:16:00,
2013-04-28 04:20:00,54.8,44.8,30.24,North,360,3.0,3.0,69,0.00,,,0.00,Wunderground v.1.15,2013-04-28 08:20:00,
2013-04-28 04:22:00,54.8,44.8,30.24,North,360,3.0,3.0,69,0.00,,,0.00,Wunderground v.1.15,2013-04-28 08:22:00,
2013-04-28 04:24:00,54.8,44.8,30.25,North,360,3.0,3.0,69,0.00,,,0.00,Wunderground v.1.15,2013-04-28 08:24:00,
2013-04-28 04:26:00,54.8,44.8,30.25,North,360,3.0,3.0,69,0.00,,,0.00,Wunderground v.1.15,2013-04-28 08:26:00,
2013-04-28 04:30:00,54.8,44.8,30.25,North,360,2.0,2.0,69,0.00,,,0.00,Wunderground v.1.15,2013-04-28 08:30:00,
2013-04-28 04:32:00,54.7,44.7,30.25,North,360,2.0,2.0,69,0.00,,,0.00,Wunderground v.1.15,2013-04-28 08:32:00,
2013-04-28 04:34:00,54.6,44.6,30.25,North,360,2.0,2.0,69,0.00,,,0.00,Wunderground v.1.15,2013-04-28 08:34:00,
2013-04-28 04:38:00,54.3,44.3,30.25,North,360,2.0,2.0,69,0.00,,,0.00,Wunderground v.1.15,2013-04-28 08:38:00,
2013-04-28 04:40:00,54.2,44.6,30.25,North,360,2.0,2.0,70,0.00,,,0.00,Wunderground v.1.15,2013-04-28 08:40:00,
2013-04-28 04:42:00,54.2,44.6,30.25,North,360,1.0,2.0,70,0.00,,,0.00,Wunderground v.1.15,2013-04-28 08:42:00,
2013-04-28 04:44:00,54.2,44.6,30.25,North,360,1.0,2.0,70,0.00,,,0.00,Wunderground v.1.15,2013-04-28 08:44:00,
2013-04-28 04:46:00,54.1,44.5,30.25,North,360,1.0,3.0,70,0.00,,,0.00,Wunderground v.1.15,2013-04-28 08:46:00,
2013-04-28 04:50:00,54.1,44.9,30.25,North,360,3.0,3.0,71,0.00,,,0.00,Wunderground v.1.15,2013-04-28 08:50:00,
2013-04-28 04:54:00,54.1,44.9,30.25,North,360,4.0,7.0,71,0.00,,,0.00,Wunderground v.1.15,2013-04-28 08:54:00,
2013-04-28 04:56:00,54.2,45.0,30.25,North,360,4.0,7.0,71,0.00,,,0.00,Wunderground v.1.15,2013-04-28 08:56:00,
2013-04-28 05:02:00,54.2,45.0,30.25,North,360,4.0,4.0,71,0.00,,,0.00,Wunderground v.1.15,2013-04-28 09:02:00,
2013-04-28 05:06:00,54.2,45.0,30.24,North,360,3.0,4.0,71,0.00,,,0.00,Wunderground v.1.15,2013-04-28 09:06:00,
2013-04-28 05:08:00,54.2,45.0,30.25,North,360,3.0,4.0,71,0.00,,,0.00,Wunderground v.1.15,2013-04-28 09:08:00,
2013-04-28 05:12:00,54.1,45.3,30.25,North,360,2.0,5.0,72,0.00,,,0.00,Wunderground v.1.15,2013-04-28 09:12:00,
2013-04-28 05:14:00,54.1,45.3,30.24,North,360,2.0,5.0,72,0.00,,,0.00,Wunderground v.1.15,2013-04-28 09:14:00,
2013-04-28 05:18:00,54.2,45.4,30.24,North,360,2.0,6.0,72,0.00,,,0.00,Wunderground v.1.15,2013-04-28 09:18:00,
2013-04-28 05:20:00,54.2,45.4,30.24,North,360,3.0,3.0,72,0.00,,,0.00,Wunderground v.1.15,2013-04-28 09:20:00,
2013-04-28 05:22:00,54.2,45.4,30.24,North,360,2.0,4.0,72,0.00,,,0.00,Wunderground v.1.15,2013-04-28 09:22:00,
2013-04-28 05:26:00,54.3,45.1,30.24,North,360,3.0,4.0,71,0.00,,,0.00,Wunderground v.1.15,2013-04-28 09:26:00,
2013-04-28 05:28:00,54.3,45.5,30.24,North,360,3.0,4.0,72,0.00,,,0.00,Wunderground v.1.15,2013-04-28 09:28:00,
2013-04-28 05:30:00,54.3,45.1,30.24,North,360,3.0,3.0,71,0.00,,,0.00,Wunderground v.1.15,2013-04-28 09:30:00,
2013-04-28 05:32:00,54.4,45.2,30.24,North,360,3.0,5.0,71,0.00,,,0.00,Wunderground v.1.15,2013-04-28 09:32:00,
2013-04-28 05:34:00,54.4,45.2,30.24,North,360,3.0,5.0,71,0.00,,,0.00,Wunderground v.1.15,2013-04-28 09:34:00,
2013-04-28 05:36:00,54.4,45.2,30.24,North,360,3.0,5.0,71,0.00,,,0.00,Wunderground v.1.15,2013-04-28 09:36:00,
2013-04-28 05:38:00,54.4,45.2,30.24,North,360,3.0,5.0,71,0.00,,,0.00,Wunderground v.1.15,2013-04-28 09:38:00,
2013-04-28 05:42:00,54.4,45.2,30.24,North,360,2.0,3.0,71,0.00,,,0.00,Wunderground v.1.15,2013-04-28 09:42:00,
2013-04-28 05:44:00,54.3,45.1,30.24,North,360,2.0,3.0,71,0.00,,,0.00,Wunderground v.1.15,2013-04-28 09:44:00,
2013-04-28 05:48:00,54.3,45.1,30.24,North,360,1.0,3.0,71,0.00,,,0.00,Wunderground v.1.15,2013-04-28 09:48:00,
2013-04-28 05:50:00,54.3,45.1,30.24,North,360,1.0,2.0,71,0.00,,,0.00,Wunderground v.1.15,2013-04-28 09:50:00,
2013-04-28 05:56:00,54.3,45.1,30.24,North,360,2.0,4.0,71,0.00,,,0.00,Wunderground v.1.15,2013-04-28 09:56:00,
2013-04-28 06:02:00,54.1,45.3,30.24,North,360,3.0,3.0,72,0.00,,,0.00,Wunderground v.1.15,2013-04-28 10:02:00,
2013-04-28 06:06:00,54.1,45.3,30.24,North,360,3.0,3.0,72,0.00,,,0.00,Wunderground v.1.15,2013-04-28 10:06:00,
2013-04-28 06:08:00,54.0,45.2,30.24,North,360,2.0,3.0,72,0.00,,,0.00,Wunderground v.1.15,2013-04-28 10:08:00,
2013-04-28 06:10:00,54.0,45.2,30.24,North,360,2.0,2.0,72,0.00,,,0.00,Wunderground v.1.15,2013-04-28 10:10:00,
2013-04-28 06:14:00,54.0,45.2,30.24,North,360,2.0,3.0,72,0.00,,,0.00,Wunderground v.1.15,2013-04-28 10:14:00,
2013-04-28 06:16:00,54.0,44.8,30.24,North,360,2.0,3.0,71,0.00,,,0.00,Wunderground v.1.15,2013-04-28 10:16:00,
2013-04-28 06:18:00,54.0,44.8,30.24,North,360,2.0,4.0,71,0.00,,,0.00,Wunderground v.1.15,2013-04-28 10:18:00,
2013-04-28 06:20:00,54.1,44.9,30.24,North,360,2.0,2.0,71,0.00,,,0.00,Wunderground v.1.15,2013-04-28 10:20:00,
2013-04-28 06:22:00,54.1,44.5,30.24,North,360,2.0,2.0,70,0.00,,,0.00,Wunderground v.1.15,2013-04-28 10:22:00,
2013-04-28 06:26:00,54.1,44.2,30.24,North,360,3.0,6.0,69,0.00,,,0.00,Wunderground v.1.15,2013-04-28 10:26:00,
2013-04-28 06:28:00,54.2,44.2,30.24,North,360,3.0,6.0,69,0.00,,,0.00,Wunderground v.1.15,2013-04-28 10:28:00,
2013-04-28 06:30:00,54.2,44.2,30.24,North,360,3.0,3.0,69,0.00,,,0.00,Wunderground v.1.15,2013-04-28 10:30:00,
2013-04-28 06:34:00,54.3,44.0,30.24,North,360,3.0,3.0,68,0.00,,,0.00,Wunderground v.1.15,2013-04-28 10:34:00,
2013-04-28 06:36:00,54.3,44.3,30.24,North,360,3.0,3.0,69,0.00,,,0.00,Wunderground v.1.15,2013-04-28 10:36:00,
2013-04-28 06:38:00,54.4,44.1,30.24,North,360,2.0,3.0,68,0.00,,,0.00,Wunderground v.1.15,2013-04-28 10:38:00,
2013-04-28 06:40:00,54.5,44.2,30.25,North,360,2.0,4.0,68,0.00,,,0.00,Wunderground v.1.15,2013-04-28 10:40:00,
2013-04-28 06:42:00,54.5,44.2,30.25,North,360,2.0,4.0,68,0.00,,,0.00,Wunderground v.1.15,2013-04-28 10:42:00,
2013-04-28 06:44:00,54.5,44.2,30.25,North,360,2.0,6.0,68,0.00,,,0.00,Wunderground v.1.15,2013-04-28 10:44:00,
2013-04-28 06:48:00,54.6,43.9,30.25,North,360,2.0,6.0,67,0.00,,,0.00,Wunderground v.1.15,2013-04-28 10:48:00,
2013-04-28 06:50:00,54.6,43.9,30.25,North,360,3.0,4.0,67,0.00,,,0.00,Wunderground v.1.15,2013-04-28 10:50:00,
2013-04-28 06:52:00,54.5,43.8,30.26,North,360,3.0,5.0,67,0.00,,,0.00,Wunderground v.1.15,2013-04-28 10:52:00,
2013-04-28 06:54:00,54.6,43.9,30.26,North,360,3.0,5.0,67,0.00,,,0.00,Wunderground v.1.15,2013-04-28 10:54:00,
2013-04-28 06:56:00,54.6,43.9,30.26,North,360,3.0,5.0,67,0.00,,,0.00,Wunderground v.1.15,2013-04-28 10:56:00,
2013-04-28 06:58:00,54.6,43.9,30.26,North,360,3.0,6.0,67,0.00,,,0.00,Wunderground v.1.15,2013-04-28 10:58:00,
2013-04-28 07:02:00,54.6,43.9,30.26,North,360,3.0,6.0,67,0.00,,,0.00,Wunderground v.1.15,2013-04-28 11:02:00,
2013-04-28 07:04:00,54.6,43.9,30.26,North,360,3.0,6.0,67,0.00,,,0.00,Wunderground v.1.15,2013-04-28 11:04:00,
2013-04-28 07:08:00,54.7,44.3,30.26,North,360,3.0,6.0,68,0.00,,,0.00,Wunderground v.1.15,2013-04-28 11:08:00,
2013-04-28 07:10:00,54.9,44.9,30.26,North,360,2.0,2.0,69,0.00,,,0.00,Wunderground v.1.15,2013-04-28 11:10:00,
2013-04-28 07:12:00,55.0,44.6,30.26,North,360,2.0,2.0,68,0.00,,,0.00,Wunderground v.1.15,2013-04-28 11:12:00,
2013-04-28 07:14:00,55.1,44.7,30.26,North,360,1.0,2.0,68,0.00,,,0.00,Wunderground v.1.15,2013-04-28 11:14:00,
2013-04-28 07:18:00,55.2,44.4,30.26,North,360,1.0,2.0,67,0.00,,,0.00,Wunderground v.1.15,2013-04-28 11:18:00,
2013-04-28 07:20:00,55.2,44.4,30.26,North,360,1.0,2.0,67,0.00,,,0.00,Wunderground v.1.15,2013-04-28 11:20:00,
2013-04-28 07:22:00,55.3,44.5,30.26,North,360,2.0,2.0,67,0.00,,,0.00,Wunderground v.1.15,2013-04-28 11:22:00,
2013-04-28 07:26:00,55.3,44.5,30.26,North,360,1.0,2.0,67,0.00,,,0.00,Wunderground v.1.15,2013-04-28 11:26:00,
2013-04-28 07:32:00,55.4,44.2,30.26,North,360,2.0,4.0,66,0.00,,,0.00,Wunderground v.1.15,2013-04-28 11:32:00,
2013-04-28 07:34:00,55.4,44.2,30.26,North,360,2.0,4.0,66,0.00,,,0.00,Wunderground v.1.15,2013-04-28 11:34:00,
2013-04-28 07:36:00,55.4,44.2,30.26,North,360,2.0,4.0,66,0.00,,,0.00,Wunderground v.1.15,2013-04-28 11:36:00,
2013-04-28 07:38:00,55.4,45.0,30.26,North,360,2.0,4.0,68,0.00,,,0.00,Wunderground v.1.15,2013-04-28 11:38:00,
2013-04-28 07:40:00,55.5,43.9,30.26,North,360,2.0,3.0,65,0.00,,,0.00,Wunderground v.1.15,2013-04-28 11:40:00,
2013-04-28 07:42:00,55.5,43.9,30.26,North,360,2.0,3.0,65,0.00,,,0.00,Wunderground v.1.15,2013-04-28 11:42:00,
2013-04-28 07:44:00,55.5,43.9,30.27,North,360,2.0,3.0,65,0.00,,,0.00,Wunderground v.1.15,2013-04-28 11:44:00,
2013-04-28 07:48:00,55.6,43.2,30.27,North,360,3.0,4.0,63,0.00,,,0.00,Wunderground v.1.15,2013-04-28 11:48:00,
2013-04-28 07:50:00,55.6,43.2,30.27,North,360,3.0,4.0,63,0.00,,,0.00,Wunderground v.1.15,2013-04-28 11:50:00,
2013-04-28 07:52:00,55.6,43.2,30.27,North,360,3.0,4.0,63,0.00,,,0.00,Wunderground v.1.15,2013-04-28 11:52:00,
2013-04-28 07:54:00,55.5,43.1,30.27,North,360,4.0,6.0,63,0.00,,,0.00,Wunderground v.1.15,2013-04-28 11:54:00,
2013-04-28 07:58:00,55.4,43.4,30.27,North,360,4.0,6.0,64,0.00,,,0.00,Wunderground v.1.15,2013-04-28 11:58:00,
2013-04-28 08:02:00,55.5,43.1,30.27,North,360,4.0,6.0,63,0.00,,,0.00,Wunderground v.1.15,2013-04-28 12:02:00,
2013-04-28 08:04:00,55.5,43.1,30.27,North,360,4.0,6.0,63,0.00,,,0.00,Wunderground v.1.15,2013-04-28 12:04:00,
2013-04-28 08:06:00,55.5,43.1,30.27,North,360,4.0,9.0,63,0.00,,,0.00,Wunderground v.1.15,2013-04-28 12:06:00,
2013-04-28 08:10:00,55.5,42.7,30.26,North,360,4.0,4.0,62,0.00,,,0.00,Wunderground v.1.15,2013-04-28 12:10:00,
2013-04-28 08:12:00,55.6,42.8,30.26,North,360,5.0,5.0,62,0.00,,,0.00,Wunderground v.1.15,2013-04-28 12:12:00,
2013-04-28 08:16:00,55.7,42.5,30.26,North,360,5.0,10.0,61,0.00,,,0.00,Wunderground v.1.15,2013-04-28 12:16:00,
2013-04-28 08:22:00,56.0,42.7,30.26,North,360,4.0,5.0,61,0.00,,,0.00,Wunderground v.1.15,2013-04-28 12:22:00,
2013-04-28 08:24:00,56.1,42.4,30.26,North,360,4.0,5.0,60,0.00,,,0.00,Wunderground v.1.15,2013-04-28 12:24:00,
2013-04-28 08:26:00,56.1,42.0,30.26,North,360,4.0,5.0,59,0.00,,,0.00,Wunderground v.1.15,2013-04-28 12:26:00,
2013-04-28 08:28:00,56.2,42.1,30.26,North,360,4.0,5.0,59,0.00,,,0.00,Wunderground v.1.15,2013-04-28 12:28:00,
2013-04-28 08:30:00,56.2,41.6,30.26,North,360,4.0,4.0,58,0.00,,,0.00,Wunderground v.1.15,2013-04-28 12:30:00,
2013-04-28 08:32:00,56.2,41.6,30.26,North,360,5.0,5.0,58,0.00,,,0.00,Wunderground v.1.15,2013-04-28 12:32:00,
2013-04-28 08:36:00,56.5,42.3,30.26,North,360,4.0,7.0,59,0.00,,,0.00,Wunderground v.1.15,2013-04-28 12:36:00,
2013-04-28 08:38:00,56.6,41.5,30.26,North,360,4.0,7.0,57,0.00,,,0.00,Wunderground v.1.15,2013-04-28 12:38:00,
2013-04-28 08:40:00,56.6,42.0,30.26,North,360,5.0,6.0,58,0.00,,,0.00,Wunderground v.1.15,2013-04-28 12:40:00,
2013-04-28 08:42:00,56.6,41.5,30.26,North,360,5.0,6.0,57,0.00,,,0.00,Wunderground v.1.15,2013-04-28 12:42:00,
2013-04-28 08:46:00,56.7,41.6,30.26,North,360,6.0,6.0,57,0.00,,,0.00,Wunderground v.1.15,2013-04-28 12:46:00,
2013-04-28 08:48:00,56.7,41.6,30.26,North,360,5.0,6.0,57,0.00,,,0.00,Wunderground v.1.15,2013-04-28 12:48:00,
2013-04-28 08:52:00,57.0,42.4,30.26,North,360,5.0,8.0,58,0.00,,,0.00,Wunderground v.1.15,2013-04-28 12:52:00,
2013-04-28 08:54:00,57.1,42.0,30.26,North,360,4.0,8.0,57,0.00,,,0.00,Wunderground v.1.15,2013-04-28 12:54:00,
2013-04-28 08:58:00,57.2,42.1,30.26,North,360,4.0,8.0,57,0.00,,,0.00,Wunderground v.1.15,2013-04-28 12:58:00,
2013-04-28 09:00:00,57.3,42.6,30.26,North,360,4.0,4.0,58,0.00,,,0.00,Wunderground v.1.15,2013-04-28 13:00:00,
2013-04-28 09:04:00,57.5,42.4,30.26,North,360,4.0,5.0,57,0.00,,,0.00,Wunderground v.1.15,2013-04-28 13:04:00,
2013-04-28 09:08:00,57.7,42.1,30.25,North,360,3.0,5.0,56,0.00,,,0.00,Wunderground v.1.15,2013-04-28 13:08:00,
2013-04-28 09:10:00,57.9,41.8,30.25,North,360,3.0,4.0,55,0.00,,,0.00,Wunderground v.1.15,2013-04-28 13:10:00,
2013-04-28 09:14:00,58.2,41.6,30.25,North,360,3.0,4.0,54,0.00,,,0.00,Wunderground v.1.15,2013-04-28 13:14:00,
2013-04-28 09:16:00,58.2,42.1,30.25,North,360,4.0,4.0,55,0.00,,,0.00,Wunderground v.1.15,2013-04-28 13:16:00,
2013-04-28 09:18:00,58.4,42.3,30.26,North,360,4.0,4.0,55,0.00,,,0.00,Wunderground v.1.15,2013-04-28 13:18:00,
2013-04-28 09:20:00,58.6,42.0,30.26,North,360,3.0,3.0,54,0.00,,,0.00,Wunderground v.1.15,2013-04-28 13:20:00,
2013-04-28 09:22:00,58.7,41.1,30.25,North,360,3.0,3.0,52,0.00,,,0.00,Wunderground v.1.15,2013-04-28 13:22:00,
2013-04-28 09:24:00,59.0,41.4,30.25,North,360,3.0,3.0,52,0.00,,,0.00,Wunderground v.1.15,2013-04-28 13:24:00,
2013-04-28 09:30:00,59.1,40.5,30.25,North,360,5.0,5.0,50,0.00,,,0.00,Wunderground v.1.15,2013-04-28 13:30:00,
2013-04-28 09:32:00,59.0,40.4,30.26,North,360,6.0,6.0,50,0.00,,,0.00,Wunderground v.1.15,2013-04-28 13:32:00,
2013-04-28 09:34:00,59.0,40.4,30.25,North,360,6.0,6.0,50,0.00,,,0.00,Wunderground v.1.15,2013-04-28 13:34:00,
2013-04-28 09:36:00,58.9,40.8,30.26,North,360,7.0,7.0,51,0.00,,,0.00,Wunderground v.1.15,2013-04-28 13:36:00,
2013-04-28 09:40:00,59.0,40.9,30.26,North,360,6.0,6.0,51,0.00,,,0.00,Wunderground v.1.15,2013-04-28 13:40:00,
2013-04-28 09:42:00,59.1,39.9,30.26,North,360,7.0,9.0,49,0.00,,,0.00,Wunderground v.1.15,2013-04-28 13:42:00,
2013-04-28 09:44:00,59.1,39.9,30.26,North,360,7.0,9.0,49,0.00,,,0.00,Wunderground v.1.15,2013-04-28 13:44:00,
2013-04-28 09:46:00,59.2,40.6,30.26,North,360,7.0,9.0,50,0.00,,,0.00,Wunderground v.1.15,2013-04-28 13:46:00,
2013-04-28 09:48:00,59.3,40.1,30.26,North,360,8.0,9.0,49,0.00,,,0.00,Wunderground v.1.15,2013-04-28 13:48:00,
2013-04-28 09:50:00,59.3,40.1,30.26,North,360,8.0,8.0,49,0.00,,,0.00,Wunderground v.1.15,2013-04-28 13:50:00,
2013-04-28 09:52:00,59.5,40.3,30.26,North,360,7.0,8.0,49,0.00,,,0.00,Wunderground v.1.15,2013-04-28 13:52:00,
2013-04-28 09:54:00,59.7,40.5,30.26,North,360,7.0,9.0,49,0.00,,,0.00,Wunderground v.1.15,2013-04-28 13:54:00,
2013-04-28 09:56:00,59.8,40.6,30.26,North,360,7.0,9.0,49,0.00,,,0.00,Wunderground v.1.15,2013-04-28 13:56:00,
2013-04-28 10:02:00,59.9,40.7,30.26,North,360,8.0,12.0,49,0.00,,,0.00,Wunderground v.1.15,2013-04-28 14:02:00,
2013-04-28 10:04:00,59.8,40.6,30.26,North,360,8.0,12.0,49,0.00,,,0.00,Wunderground v.1.15,2013-04-28 14:04:00,
2013-04-28 10:10:00,60.3,41.0,30.26,North,360,6.0,6.0,49,0.00,,,0.00,Wunderground v.1.15,2013-04-28 14:10:00,
2013-04-28 10:12:00,60.5,41.2,30.26,North,360,5.0,6.0,49,0.00,,,0.00,Wunderground v.1.15,2013-04-28 14:12:00,
2013-04-28 10:14:00,60.6,41.3,30.26,North,360,5.0,6.0,49,0.00,,,0.00,Wunderground v.1.15,2013-04-28 14:14:00,
2013-04-28 10:20:00,60.6,41.8,30.26,North,360,4.0,4.0,50,0.00,,,0.00,Wunderground v.1.15,2013-04-28 14:20:00,
2013-04-28 10:22:00,60.4,41.7,30.26,North,360,4.0,4.0,50,0.00,,,0.00,Wunderground v.1.15,2013-04-28 14:22:00,
2013-04-28 10:24:00,60.4,41.7,30.26,North,360,4.0,5.0,50,0.00,,,0.00,Wunderground v.1.15,2013-04-28 14:24:00,
2013-04-28 10:26:00,60.6,42.4,30.26,North,360,4.0,5.0,51,0.00,,,0.00,Wunderground v.1.15,2013-04-28 14:26:00,
2013-04-28 10:32:00,61.3,43.0,30.26,North,360,3.0,3.0,51,0.00,,,0.00,Wunderground v.1.15,2013-04-28 14:32:00,
2013-04-28 10:36:00,61.8,43.0,30.26,North,360,3.0,4.0,50,0.00,,,0.00,Wunderground v.1.15,2013-04-28 14:36:00,
2013-04-28 10:40:00,62.3,43.4,30.26,North,360,3.0,3.0,50,0.00,,,0.00,Wunderground v.1.15,2013-04-28 14:40:00,
2013-04-28 10:42:00,62.7,43.3,30.26,North,360,2.0,3.0,49,0.00,,,0.00,Wunderground v.1.15,2013-04-28 14:42:00,
2013-04-28 10:46:00,63.3,43.8,30.26,North,360,2.0,3.0,49,0.00,,,0.00,Wunderground v.1.15,2013-04-28 14:46:00,
2013-04-28 10:48:00,63.6,44.1,30.25,North,360,1.0,3.0,49,0.00,,,0.00,Wunderground v.1.15,2013-04-28 14:48:00,
2013-04-28 10:52:00,63.9,43.3,30.25,North,360,3.0,8.0,47,0.00,,,0.00,Wunderground v.1.15,2013-04-28 14:52:00,
2013-04-28 10:56:00,64.0,43.4,30.25,North,360,5.0,8.0,47,0.00,,,0.00,Wunderground v.1.15,2013-04-28 14:56:00,
2013-04-28 10:58:00,64.0,43.4,30.25,North,360,5.0,8.0,47,0.00,,,0.00,Wunderground v.1.15,2013-04-28 14:58:00,
2013-04-28 11:00:00,64.1,43.4,30.25,North,360,4.0,4.0,47,0.00,,,0.00,Wunderground v.1.15,2013-04-28 15:00:00,
2013-04-28 11:02:00,64.4,43.7,30.25,North,360,4.0,6.0,47,0.00,,,0.00,Wunderground v.1.15,2013-04-28 15:02:00,
2013-04-28 11:04:00,64.5,43.3,30.25,North,360,3.0,6.0,46,0.00,,,0.00,Wunderground v.1.15,2013-04-28 15:04:00,
2013-04-28 11:08:00,64.6,42.2,30.25,North,360,4.0,10.0,44,0.00,,,0.00,Wunderground v.1.15,2013-04-28 15:08:00,
2013-04-28 11:10:00,64.6,42.2,30.25,North,360,4.0,5.0,44,0.00,,,0.00,Wunderground v.1.15,2013-04-28 15:10:00,
2013-04-28 11:12:00,64.8,41.8,30.25,North,360,5.0,7.0,43,0.00,,,0.00,Wunderground v.1.15,2013-04-28 15:12:00,
2013-04-28 11:18:00,65.0,41.9,30.25,North,360,7.0,8.0,43,0.00,,,0.00,Wunderground v.1.15,2013-04-28 15:18:00,
2013-04-28 11:20:00,65.1,42.0,30.25,North,360,7.0,7.0,43,0.00,,,0.00,Wunderground v.1.15,2013-04-28 15:20:00,
2013-04-28 11:26:00,65.1,41.4,30.25,North,360,6.0,10.0,42,0.00,,,0.00,Wunderground v.1.15,2013-04-28 15:26:00,
2013-04-28 11:28:00,65.2,41.5,30.25,North,360,6.0,10.0,42,0.00,,,0.00,Wunderground v.1.15,2013-04-28 15:28:00,
2013-04-28 11:32:00,65.3,41.0,30.25,North,360,6.0,9.0,41,0.00,,,0.00,Wunderground v.1.15,2013-04-28 15:32:00,
2013-04-28 11:36:00,65.4,41.7,30.25,North,360,7.0,12.0,42,0.00,,,0.00,Wunderground v.1.15,2013-04-28 15:36:00,
2013-04-28 11:38:00,65.4,42.3,30.25,North,360,8.0,12.0,43,0.00,,,0.00,Wunderground v.1.15,2013-04-28 15:38:00,
2013-04-28 11:40:00,65.4,42.3,30.25,North,360,9.0,9.0,43,0.00,,,0.00,Wunderground v.1.15,2013-04-28 15:40:00,
2013-04-28 11:42:00,65.5,42.4,30.25,North,360,9.0,10.0,43,0.00,,,0.00,Wunderground v.1.15,2013-04-28 15:42:00,
2013-04-28 11:44:00,65.6,41.9,30.25,North,360,8.0,10.0,42,0.00,,,0.00,Wunderground v.1.15,2013-04-28 15:44:00,
2013-04-28 11:46:00,65.7,42.0,30.25,North,360,7.0,11.0,42,0.00,,,0.00,Wunderground v.1.15,2013-04-28 15:46:00,
2013-04-28 11:50:00,65.9,41.5,30.25,North,360,7.0,7.0,41,0.00,,,0.00,Wunderground v.1.15,2013-04-28 15:50:00,
2013-04-28 11:54:00,66.2,41.8,30.25,North,360,7.0,9.0,41,0.00,,,0.00,Wunderground v.1.15,2013-04-28 15:54:00,
2013-04-28 11:56:00,66.4,42.0,30.25,North,360,8.0,10.0,41,0.00,,,0.00,Wunderground v.1.15,2013-04-28 15:56:00,
2013-04-28 11:58:00,66.5,41.4,30.24,North,360,7.0,10.0,40,0.00,,,0.00,Wunderground v.1.15,2013-04-28 15:58:00,
2013-04-28 12:00:00,66.6,41.5,30.25,North,360,6.0,11.0,40,0.00,,,0.00,Wunderground v.1.15,2013-04-28 16:00:00,
2013-04-28 12:02:00,66.5,41.4,30.25,North,360,7.0,11.0,40,0.00,,,0.00,Wunderground v.1.15,2013-04-28 16:02:00,
2013-04-28 12:04:00,66.4,41.3,30.24,North,360,7.0,11.0,40,0.00,,,0.00,Wunderground v.1.15,2013-04-28 16:04:00,
2013-04-28 12:06:00,66.5,41.4,30.25,North,360,7.0,12.0,40,0.00,,,0.00,Wunderground v.1.15,2013-04-28 16:06:00,
2013-04-28 12:08:00,66.4,40.7,30.25,North,360,8.0,12.0,39,0.00,,,0.00,Wunderground v.1.15,2013-04-28 16:08:00,
2013-04-28 12:12:00,66.4,40.7,30.24,North,360,8.0,15.0,39,0.00,,,0.00,Wunderground v.1.15,2013-04-28 16:12:00,
2013-04-28 12:18:00,66.7,38.2,30.24,North,360,7.0,15.0,35,0.00,,,0.00,Wunderground v.1.15,2013-04-28 16:18:00,
2013-04-28 12:20:00,66.8,38.3,30.24,North,360,7.0,18.0,35,0.00,,,0.00,Wunderground v.1.15,2013-04-28 16:20:00,
2013-04-28 12:24:00,66.8,38.3,30.24,North,360,9.0,18.0,35,0.00,,,0.00,Wunderground v.1.15,2013-04-28 16:24:00,
2013-04-28 12:26:00,66.8,38.3,30.23,North,360,10.0,18.0,35,0.00,,,0.00,Wunderground v.1.15,2013-04-28 16:26:00,
2013-04-28 12:28:00,66.9,38.3,30.23,North,360,9.0,18.0,35,0.00,,,0.00,Wunderground v.1.15,2013-04-28 16:28:00,
2013-04-28 12:32:00,66.9,38.3,30.23,North,360,9.0,14.0,35,0.00,,,0.00,Wunderground v.1.15,2013-04-28 16:32:00,
2013-04-28 12:34:00,66.9,38.3,30.23,North,360,8.0,14.0,35,0.00,,,0.00,Wunderground v.1.15,2013-04-28 16:34:00,
2013-04-28 12:38:00,67.0,38.4,30.23,North,360,7.0,14.0,35,0.00,,,0.00,Wunderground v.1.15,2013-04-28 16:38:00,
2013-04-28 12:40:00,67.1,38.5,30.23,North,360,7.0,7.0,35,0.00,,,0.00,Wunderground v.1.15,2013-04-28 16:40:00,
2013-04-28 12:42:00,67.2,38.6,30.23,North,360,7.0,7.0,35,0.00,,,0.00,Wunderground v.1.15,2013-04-28 16:42:00,
2013-04-28 12:46:00,67.2,38.6,30.23,North,360,7.0,11.0,35,0.00,,,0.00,Wunderground v.1.15,2013-04-28 16:46:00,
2013-04-28 12:48:00,67.1,38.5,30.23,North,360,7.0,16.0,35,0.00,,,0.00,Wunderground v.1.15,2013-04-28 16:48:00,
2013-04-28 12:50:00,66.9,39.1,30.23,North,360,9.0,9.0,36,0.00,,,0.00,Wunderground v.1.15,2013-04-28 16:50:00,
2013-04-28 12:54:00,66.8,39.7,30.23,North,360,9.0,10.0,37,0.00,,,0.00,Wunderground v.1.15,2013-04-28 16:54:00,
2013-04-28 12:56:00,66.8,39.0,30.23,North,360,9.0,10.0,36,0.00,,,0.00,Wunderground v.1.15,2013-04-28 16:56:00,
2013-04-28 12:58:00,66.9,39.1,30.23,North,360,8.0,10.0,36,0.00,,,0.00,Wunderground v.1.15,2013-04-28 16:58:00,
2013-04-28 13:02:00,66.8,39.0,30.23,North,360,7.0,12.0,36,0.00,,,0.00,Wunderground v.1.15,2013-04-28 17:02:00,
2013-04-28 13:04:00,66.7,38.9,30.23,North,360,9.0,12.0,36,0.00,,,0.00,Wunderground v.1.15,2013-04-28 17:04:00,
2013-04-28 13:06:00,66.6,38.8,30.23,North,360,9.0,12.0,36,0.00,,,0.00,Wunderground v.1.15,2013-04-28 17:06:00,
2013-04-28 13:08:00,66.5,38.7,30.23,North,360,9.0,12.0,36,0.00,,,0.00,Wunderground v.1.15,2013-04-28 17:08:00,
2013-04-28 13:10:00,66.5,38.7,30.23,North,360,10.0,10.0,36,0.00,,,0.00,Wunderground v.1.15,2013-04-28 17:10:00,
2013-04-28 13:12:00,66.5,38.7,30.23,North,360,10.0,10.0,36,0.00,,,0.00,Wunderground v.1.15,2013-04-28 17:12:00,
2013-04-28 13:14:00,66.6,39.5,30.23,North,360,8.0,10.0,37,0.00,,,0.00,Wunderground v.1.15,2013-04-28 17:14:00,
2013-04-28 13:16:00,66.8,39.0,30.23,North,360,7.0,10.0,36,0.00,,,0.00,Wunderground v.1.15,2013-04-28 17:16:00,
2013-04-28 13:18:00,66.9,39.1,30.23,North,360,6.0,16.0,36,0.00,,,0.00,Wunderground v.1.15,2013-04-28 17:18:00,
2013-04-28 13:20:00,66.8,39.0,30.23,North,360,6.0,7.0,36,0.00,,,0.00,Wunderground v.1.15,2013-04-28 17:20:00,
2013-04-28 13:22:00,66.8,39.0,30.23,North,360,7.0,7.0,36,0.00,,,0.00,Wunderground v.1.15,2013-04-28 17:22:00,
2013-04-28 13:26:00,66.9,38.3,30.23,North,360,8.0,8.0,35,0.00,,,0.00,Wunderground v.1.15,2013-04-28 17:26:00,
2013-04-28 13:28:00,66.9,39.1,30.23,North,360,9.0,9.0,36,0.00,,,0.00,Wunderground v.1.15,2013-04-28 17:28:00,
2013-04-28 13:30:00,66.8,38.3,30.23,North,360,9.0,12.0,35,0.00,,,0.00,Wunderground v.1.15,2013-04-28 17:30:00,
2013-04-28 13:32:00,66.8,38.3,30.23,North,360,9.0,12.0,35,0.00,,,0.00,Wunderground v.1.15,2013-04-28 17:32:00,
2013-04-28 13:36:00,66.8,38.3,30.23,North,360,8.0,12.0,35,0.00,,,0.00,Wunderground v.1.15,2013-04-28 17:36:00,
2013-04-28 13:38:00,67.0,38.4,30.23,North,360,8.0,12.0,35,0.00,,,0.00,Wunderground v.1.15,2013-04-28 17:38:00,
2013-04-28 13:40:00,67.1,37.8,30.23,North,360,7.0,7.0,34,0.00,,,0.00,Wunderground v.1.15,2013-04-28 17:40:00,
2013-04-28 13:42:00,67.1,37.8,30.23,North,360,5.0,10.0,34,0.00,,,0.00,Wunderground v.1.15,2013-04-28 17:42:00,
2013-04-28 13:44:00,67.0,37.7,30.23,North,360,6.0,12.0,34,0.00,,,0.00,Wunderground v.1.15,2013-04-28 17:44:00,
2013-04-28 13:48:00,67.1,37.8,30.22,North,360,7.0,12.0,34,0.00,,,0.00,Wunderground v.1.15,2013-04-28 17:48:00,
2013-04-28 13:50:00,67.2,37.9,30.23,North,360,7.0,7.0,34,0.00,,,0.00,Wunderground v.1.15,2013-04-28 17:50:00,
2013-04-28 13:54:00,67.1,37.8,30.22,North,360,6.0,7.0,34,0.00,,,0.00,Wunderground v.1.15,2013-04-28 17:54:00,
2013-04-28 13:58:00,67.2,37.9,30.22,North,360,6.0,11.0,34,0.00,,,0.00,Wunderground v.1.15,2013-04-28 17:58:00,
2013-04-28 14:02:00,67.1,37.8,30.22,North,360,6.0,7.0,34,0.00,,,0.00,Wunderground v.1.15,2013-04-28 18:02:00,
2013-04-28 14:04:00,67.1,37.8,30.22,North,360,7.0,9.0,34,0.00,,,0.00,Wunderground v.1.15,2013-04-28 18:04:00,
2013-04-28 14:06:00,67.1,38.5,30.22,North,360,7.0,9.0,35,0.00,,,0.00,Wunderground v.1.15,2013-04-28 18:06:00,
2013-04-28 14:08:00,67.1,38.5,30.22,North,360,7.0,9.0,35,0.00,,,0.00,Wunderground v.1.15,2013-04-28 18:08:00,
2013-04-28 14:10:00,67.1,38.5,30.22,North,360,6.0,6.0,35,0.00,,,0.00,Wunderground v.1.15,2013-04-28 18:10:00,
2013-04-28 14:12:00,67.1,38.5,30.22,North,360,6.0,10.0,35,0.00,,,0.00,Wunderground v.1.15,2013-04-28 18:12:00,
2013-04-28 14:14:00,67.0,37.7,30.22,North,360,6.0,12.0,34,0.00,,,0.00,Wunderground v.1.15,2013-04-28 18:14:00,
2013-04-28 14:16:00,66.8,38.3,30.22,North,360,7.0,12.0,35,0.00,,,0.00,Wunderground v.1.15,2013-04-28 18:16:00,
2013-04-28 14:18:00,66.7,38.2,30.22,North,360,9.0,15.0,35,0.00,,,0.00,Wunderground v.1.15,2013-04-28 18:18:00,
2013-04-28 14:22:00,66.5,38.0,30.22,North,360,10.0,10.0,35,0.00,,,0.00,Wunderground v.1.15,2013-04-28 18:22:00,
2013-04-28 14:24:00,66.5,38.0,30.22,North,360,9.0,12.0,35,0.00,,,0.00,Wunderground v.1.15,2013-04-28 18:24:00,
2013-04-28 14:26:00,66.6,38.1,30.22,North,360,8.0,12.0,35,0.00,,,0.00,Wunderground v.1.15,2013-04-28 18:26:00,
2013-04-28 14:28:00,66.7,38.2,30.22,North,360,7.0,12.0,35,0.00,,,0.00,Wunderground v.1.15,2013-04-28 18:28:00,
2013-04-28 14:32:00,66.6,37.3,30.22,North,360,8.0,13.0,34,0.00,,,0.00,Wunderground v.1.15,2013-04-28 18:32:00,
2013-04-28 14:34:00,66.5,37.2,30.22,North,360,9.0,13.0,34,0.00,,,0.00,Wunderground v.1.15,2013-04-28 18:34:00,
2013-04-28 14:36:00,66.3,37.1,30.22,North,360,10.0,19.0,34,0.00,,,0.00,Wunderground v.1.15,2013-04-28 18:36:00,
2013-04-28 14:40:00,66.2,37.0,30.22,North,360,10.0,10.0,34,0.00,,,0.00,Wunderground v.1.15,2013-04-28 18:40:00,
2013-04-28 14:42:00,66.1,36.9,30.22,North,360,11.0,11.0,34,0.00,,,0.00,Wunderground v.1.15,2013-04-28 18:42:00,
2013-04-28 14:46:00,66.1,36.9,30.22,North,360,10.0,11.0,34,0.00,,,0.00,Wunderground v.1.15,2013-04-28 18:46:00,
2013-04-28 14:48:00,66.1,36.9,30.22,North,360,10.0,11.0,34,0.00,,,0.00,Wunderground v.1.15,2013-04-28 18:48:00,
2013-04-28 14:50:00,66.1,37.6,30.22,North,360,9.0,9.0,35,0.00,,,0.00,Wunderground v.1.15,2013-04-28 18:50:00,
2013-04-28 14:54:00,66.2,37.7,30.22,North,360,7.0,15.0,35,0.00,,,0.00,Wunderground v.1.15,2013-04-28 18:54:00,
2013-04-28 14:56:00,66.2,37.7,30.22,North,360,8.0,15.0,35,0.00,,,0.00,Wunderground v.1.15,2013-04-28 18:56:00,
2013-04-28 15:00:00,65.9,37.5,30.22,North,360,9.0,9.0,35,0.00,,,0.00,Wunderground v.1.15,2013-04-28 19:00:00,
2013-04-28 15:02:00,65.8,37.4,30.22,North,360,9.0,12.0,35,0.00,,,0.00,Wunderground v.1.15,2013-04-28 19:02:00,
2013-04-28 15:06:00,65.7,38.0,30.22,North,360,10.0,13.0,36,0.00,,,0.00,Wunderground v.1.15,2013-04-28 19:06:00,
2013-04-28 15:08:00,65.6,37.9,30.22,North,360,9.0,13.0,36,0.00,,,0.00,Wunderground v.1.15,2013-04-28 19:08:00,
2013-04-28 15:12:00,65.3,37.6,30.22,North,360,10.0,10.0,36,0.00,,,0.00,Wunderground v.1.15,2013-04-28 19:12:00,
2013-04-28 15:16:00,65.2,38.3,30.22,North,360,9.0,10.0,37,0.00,,,0.00,Wunderground v.1.15,2013-04-28 19:16:00,
2013-04-28 15:18:00,65.2,38.9,30.22,North,360,9.0,10.0,38,0.00,,,0.00,Wunderground v.1.15,2013-04-28 19:18:00,
2013-04-28 15:22:00,65.1,38.8,30.22,North,360,9.0,14.0,38,0.00,,,0.00,Wunderground v.1.15,2013-04-28 19:22:00,
2013-04-28 15:26:00,64.8,41.2,30.21,North,360,8.0,14.0,42,0.00,,,0.00,Wunderground v.1.15,2013-04-28 19:26:00,
2013-04-28 15:28:00,64.5,40.9,30.21,North,360,7.0,14.0,42,0.00,,,0.00,Wunderground v.1.15,2013-04-28 19:28:00,
2013-04-28 15:30:00,64.2,40.6,30.21,North,360,7.0,14.0,42,0.00,,,0.00,Wunderground v.1.15,2013-04-28 19:30:00,
2013-04-28 15:34:00,62.8,46.4,30.21,North,360,7.0,14.0,55,0.00,,,0.00,Wunderground v.1.15,2013-04-28 19:34:00,
2013-04-28 15:38:00,62.2,43.8,30.21,North,360,8.0,14.0,51,0.00,,,0.00,Wunderground v.1.15,2013-04-28 19:38:00,
2013-04-28 15:40:00,62.2,43.8,30.21,North,360,7.0,7.0,51,0.00,,,0.00,Wunderground v.1.15,2013-04-28 19:40:00,
2013-04-28 15:42:00,62.2,44.9,30.21,North,360,7.0,7.0,53,0.00,,,0.00,Wunderground v.1.15,2013-04-28 19:42:00,
2013-04-28 15:46:00,62.1,44.8,30.21,North,360,6.0,7.0,53,0.00,,,0.00,Wunderground v.1.15,2013-04-28 19:46:00,
2013-04-28 15:48:00,62.0,47.0,30.20,North,360,5.0,7.0,58,0.00,,,0.00,Wunderground v.1.15,2013-04-28 19:48:00,
2013-04-28 15:54:00,61.6,48.0,30.20,North,360,3.0,4.0,61,0.00,,,0.00,Wunderground v.1.15,2013-04-28 19:54:00,
2013-04-28 15:56:00,61.5,48.4,30.20,North,360,2.0,5.0,62,0.00,,,0.00,Wunderground v.1.15,2013-04-28 19:56:00,
2013-04-28 15:58:00,61.3,48.6,30.20,North,360,3.0,5.0,63,0.00,,,0.00,Wunderground v.1.15,2013-04-28 19:58:00,
2013-04-28 16:02:00,60.9,48.2,30.20,North,360,3.0,6.0,63,0.00,,,0.00,Wunderground v.1.15,2013-04-28 20:02:00,
2013-04-28 16:04:00,60.6,48.8,30.19,North,360,4.0,6.0,65,0.00,,,0.00,Wunderground v.1.15,2013-04-28 20:04:00,
2013-04-28 16:08:00,60.2,48.8,30.20,North,360,4.0,7.0,66,0.00,,,0.00,Wunderground v.1.15,2013-04-28 20:08:00,
2013-04-28 16:12:00,59.9,48.5,30.19,North,360,4.0,5.0,66,0.00,,,0.00,Wunderground v.1.15,2013-04-28 20:12:00,
2013-04-28 16:14:00,60.0,49.0,30.19,North,360,4.0,5.0,67,0.00,,,0.00,Wunderground v.1.15,2013-04-28 20:14:00,
2013-04-28 16:16:00,60.0,49.0,30.19,North,360,3.0,5.0,67,0.00,,,0.00,Wunderground v.1.15,2013-04-28 20:16:00,
2013-04-28 16:20:00,60.3,49.7,30.19,North,360,1.0,1.0,68,0.00,,,0.00,Wunderground v.1.15,2013-04-28 20:20:00,
2013-04-28 16:22:00,60.4,49.4,30.19,North,360,1.0,1.0,67,0.00,,,0.00,Wunderground v.1.15,2013-04-28 20:22:00,
2013-04-28 16:26:00,60.4,49.4,30.18,North,360,1.0,2.0,67,0.00,,,0.00,Wunderground v.1.15,2013-04-28 20:26:00,
2013-04-28 16:32:00,60.6,48.4,30.18,North,360,1.0,3.0,64,0.00,,,0.00,Wunderground v.1.15,2013-04-28 20:32:00,
2013-04-28 16:34:00,60.7,48.9,30.18,North,360,1.0,3.0,65,0.00,,,0.00,Wunderground v.1.15,2013-04-28 20:34:00,
2013-04-28 16:36:00,60.7,48.9,30.18,North,360,2.0,3.0,65,0.00,,,0.00,Wunderground v.1.15,2013-04-28 20:36:00,
2013-04-28 16:42:00,60.9,48.2,30.18,North,360,2.0,3.0,63,0.00,,,0.00,Wunderground v.1.15,2013-04-28 20:42:00,
2013-04-28 16:44:00,61.0,48.7,30.18,North,360,2.0,3.0,64,0.00,,,0.00,Wunderground v.1.15,2013-04-28 20:44:00,
2013-04-28 16:48:00,61.2,48.9,30.18,North,360,2.0,3.0,64,0.00,,,0.00,Wunderground v.1.15,2013-04-28 20:48:00,
2013-04-28 16:52:00,61.2,48.1,30.17,North,360,2.0,3.0,62,0.00,,,0.00,Wunderground v.1.15,2013-04-28 20:52:00,
2013-04-28 16:54:00,61.2,48.5,30.18,North,360,2.0,3.0,63,0.00,,,0.00,Wunderground v.1.15,2013-04-28 20:54:00,
2013-04-28 16:56:00,61.2,48.1,30.18,North,360,2.0,3.0,62,0.00,,,0.00,Wunderground v.1.15,2013-04-28 20:56:00,
2013-04-28 17:00:00,61.2,47.6,30.18,North,360,3.0,6.0,61,0.00,,,0.00,Wunderground v.1.15,2013-04-28 21:00:00,
2013-04-28 17:04:00,61.5,48.4,30.17,North,360,2.0,6.0,62,0.00,,,0.00,Wunderground v.1.15,2013-04-28 21:04:00,
2013-04-28 17:10:00,61.4,47.8,30.16,North,360,2.0,5.0,61,0.00,,,0.00,Wunderground v.1.15,2013-04-28 21:10:00,
2013-04-28 17:12:00,61.4,47.8,30.16,North,360,2.0,5.0,61,0.00,,,0.00,Wunderground v.1.15,2013-04-28 21:12:00,
2013-04-28 17:16:00,61.5,47.9,30.16,North,360,3.0,5.0,61,0.00,,,0.00,Wunderground v.1.15,2013-04-28 21:16:00,
2013-04-28 17:20:00,61.6,48.0,30.16,North,360,3.0,3.0,61,0.00,,,0.00,Wunderground v.1.15,2013-04-28 21:20:00,
2013-04-28 17:22:00,61.6,47.6,30.16,North,360,3.0,5.0,60,0.00,,,0.00,Wunderground v.1.15,2013-04-28 21:22:00,
2013-04-28 17:26:00,61.7,46.8,30.16,North,360,3.0,5.0,58,0.00,,,0.00,Wunderground v.1.15,2013-04-28 21:26:00,
2013-04-28 17:28:00,61.7,45.8,30.16,North,360,3.0,6.0,56,0.00,,,0.00,Wunderground v.1.15,2013-04-28 21:28:00,
2013-04-28 17:32:00,61.7,46.3,30.16,North,360,4.0,4.0,57,0.00,,,0.00,Wunderground v.1.15,2013-04-28 21:32:00,
2013-04-28 17:38:00,61.7,44.9,30.16,North,360,3.0,4.0,54,0.00,,,0.00,Wunderground v.1.15,2013-04-28 21:38:00,
2013-04-28 17:40:00,61.8,44.5,30.16,North,360,3.0,4.0,53,0.00,,,0.00,Wunderground v.1.15,2013-04-28 21:40:00,
2013-04-28 17:42:00,61.8,45.0,30.16,North,360,3.0,5.0,54,0.00,,,0.00,Wunderground v.1.15,2013-04-28 21:42:00,
2013-04-28 17:44:00,61.9,45.1,30.16,North,360,4.0,6.0,54,0.00,,,0.00,Wunderground v.1.15,2013-04-28 21:44:00,
2013-04-28 17:46:00,61.9,45.1,30.16,North,360,4.0,6.0,54,0.00,,,0.00,Wunderground v.1.15,2013-04-28 21:46:00,
2013-04-28 17:50:00,61.9,44.6,30.16,North,360,4.0,5.0,53,0.00,,,0.00,Wunderground v.1.15,2013-04-28 21:50:00,
2013-04-28 17:52:00,61.9,44.6,30.16,North,360,5.0,6.0,53,0.00,,,0.00,Wunderground v.1.15,2013-04-28 21:52:00,
2013-04-28 17:54:00,62.0,43.7,30.16,North,360,5.0,6.0,51,0.00,,,0.00,Wunderground v.1.15,2013-04-28 21:54:00,
2013-04-28 17:58:00,62.2,43.8,30.16,North,360,4.0,7.0,51,0.00,,,0.00,Wunderground v.1.15,2013-04-28 21:58:00,
2013-04-28 18:00:00,62.3,43.9,30.16,North,360,4.0,4.0,51,0.00,,,0.00,Wunderground v.1.15,2013-04-28 22:00:00,
2013-04-28 18:06:00,62.4,40.8,30.15,North,360,5.0,9.0,45,0.00,,,0.00,Wunderground v.1.15,2013-04-28 22:06:00,
2013-04-28 18:12:00,62.4,39.0,30.16,North,360,6.0,8.0,42,0.00,,,0.00,Wunderground v.1.15,2013-04-28 22:12:00,
2013-04-28 18:14:00,62.4,39.6,30.15,North,360,7.0,8.0,43,0.00,,,0.00,Wunderground v.1.15,2013-04-28 22:14:00,
2013-04-28 18:16:00,62.5,39.7,30.15,North,360,6.0,8.0,43,0.00,,,0.00,Wunderground v.1.15,2013-04-28 22:16:00,
2013-04-28 18:18:00,62.7,39.9,30.15,North,360,6.0,8.0,43,0.00,,,0.00,Wunderground v.1.15,2013-04-28 22:18:00,
2013-04-28 18:24:00,62.5,39.1,30.15,North,360,7.0,9.0,42,0.00,,,0.00,Wunderground v.1.15,2013-04-28 22:24:00,
2013-04-28 18:26:00,62.4,39.0,30.15,North,360,8.0,9.0,42,0.00,,,0.00,Wunderground v.1.15,2013-04-28 22:26:00,
2013-04-28 18:28:00,62.3,38.9,30.15,North,360,9.0,9.0,42,0.00,,,0.00,Wunderground v.1.15,2013-04-28 22:28:00,
2013-04-28 18:32:00,62.3,39.5,30.15,North,360,9.0,10.0,43,0.00,,,0.00,Wunderground v.1.15,2013-04-28 22:32:00,
2013-04-28 18:34:00,62.3,39.5,30.15,North,360,8.0,10.0,43,0.00,,,0.00,Wunderground v.1.15,2013-04-28 22:34:00,
2013-04-28 18:36:00,62.3,39.5,30.15,North,360,7.0,10.0,43,0.00,,,0.00,Wunderground v.1.15,2013-04-28 22:36:00,
2013-04-28 18:40:00,62.4,39.6,30.14,North,360,7.0,7.0,43,0.00,,,0.00,Wunderground v.1.15,2013-04-28 22:40:00,
2013-04-28 18:42:00,62.4,39.6,30.14,North,360,7.0,7.0,43,0.00,,,0.00,Wunderground v.1.15,2013-04-28 22:42:00,
2013-04-28 18:46:00,62.3,40.1,30.14,North,360,6.0,7.0,44,0.00,,,0.00,Wunderground v.1.15,2013-04-28 22:46:00,
2013-04-28 18:48:00,62.2,40.0,30.14,North,360,6.0,11.0,44,0.00,,,0.00,Wunderground v.1.15,2013-04-28 22:48:00,
2013-04-28 18:50:00,62.1,39.9,30.14,North,360,7.0,10.0,44,0.00,,,0.00,Wunderground v.1.15,2013-04-28 22:50:00,
2013-04-28 18:52:00,62.0,40.4,30.14,North,360,7.0,11.0,45,0.00,,,0.00,Wunderground v.1.15,2013-04-28 22:52:00,
2013-04-28 18:54:00,62.0,40.4,30.14,North,360,9.0,11.0,45,0.00,,,0.00,Wunderground v.1.15,2013-04-28 22:54:00,
2013-04-28 18:58:00,61.8,40.2,30.14,North,360,9.0,11.0,45,0.00,,,0.00,Wunderground v.1.15,2013-04-28 22:58:00,
2013-04-28 19:00:00,61.8,40.2,30.14,North,360,9.0,9.0,45,0.00,,,0.00,Wunderground v.1.15,2013-04-28 23:00:00,
2013-04-28 19:02:00,61.8,40.2,30.14,North,360,9.0,9.0,45,0.00,,,0.00,Wunderground v.1.15,2013-04-28 23:02:00,
2013-04-28 19:04:00,61.9,40.9,30.14,North,360,8.0,9.0,46,0.00,,,0.00,Wunderground v.1.15,2013-04-28 23:04:00,
2013-04-28 19:08:00,61.8,40.2,30.14,North,360,8.0,9.0,45,0.00,,,0.00,Wunderground v.1.15,2013-04-28 23:08:00,
2013-04-28 19:12:00,61.6,40.6,30.14,North,360,9.0,15.0,46,0.00,,,0.00,Wunderground v.1.15,2013-04-28 23:12:00,
2013-04-28 19:14:00,61.6,40.6,30.13,North,360,10.0,15.0,46,0.00,,,0.00,Wunderground v.1.15,2013-04-28 23:14:00,
2013-04-28 19:16:00,61.6,40.6,30.14,North,360,10.0,15.0,46,0.00,,,0.00,Wunderground v.1.15,2013-04-28 23:16:00,
2013-04-28 19:18:00,61.6,41.2,30.14,North,360,10.0,15.0,47,0.00,,,0.00,Wunderground v.1.15,2013-04-28 23:18:00,
2013-04-28 19:22:00,61.6,41.2,30.14,North,360,8.0,9.0,47,0.00,,,0.00,Wunderground v.1.15,2013-04-28 23:22:00,
2013-04-28 19:24:00,61.6,41.7,30.14,North,360,8.0,9.0,48,0.00,,,0.00,Wunderground v.1.15,2013-04-28 23:24:00,
2013-04-28 19:26:00,61.6,41.7,30.14,North,360,8.0,9.0,48,0.00,,,0.00,Wunderground v.1.15,2013-04-28 23:26:00,
2013-04-28 19:30:00,61.4,41.5,30.14,North,360,7.0,7.0,48,0.00,,,0.00,Wunderground v.1.15,2013-04-28 23:30:00,
2013-04-28 19:32:00,61.3,41.4,30.14,North,360,8.0,12.0,48,0.00,,,0.00,Wunderground v.1.15,2013-04-28 23:32:00,
2013-04-28 19:36:00,61.3,42.0,30.14,North,360,8.0,12.0,49,0.00,,,0.00,Wunderground v.1.15,2013-04-28 23:36:00,
2013-04-28 19:38:00,61.2,41.9,30.14,North,360,8.0,12.0,49,0.00,,,0.00,Wunderground v.1.15,2013-04-28 23:38:00,
2013-04-28 19:42:00,61.1,41.8,30.14,North,360,8.0,8.0,49,0.00,,,0.00,Wunderground v.1.15,2013-04-28 23:42:00,
2013-04-28 19:44:00,61.1,42.3,30.14,North,360,9.0,10.0,50,0.00,,,0.00,Wunderground v.1.15,2013-04-28 23:44:00,
2013-04-28 19:48:00,61.0,42.2,30.14,North,360,8.0,10.0,50,0.00,,,0.00,Wunderground v.1.15,2013-04-28 23:48:00,
2013-04-28 19:50:00,60.9,42.1,30.14,North,360,8.0,8.0,50,0.00,,,0.00,Wunderground v.1.15,2013-04-28 23:50:00,
2013-04-28 19:54:00,60.9,42.6,30.14,North,360,8.0,8.0,51,0.00,,,0.00,Wunderground v.1.15,2013-04-28 23:54:00,
2013-04-28 19:56:00,60.8,42.5,30.14,North,360,7.0,12.0,51,0.00,,,0.00,Wunderground v.1.15,2013-04-28 23:56:00,
2013-04-28 19:58:00,60.8,42.5,30.14,North,360,8.0,12.0,51,0.00,,,0.00,Wunderground v.1.15,2013-04-28 23:58:00,
2013-04-28 20:00:00,60.7,42.5,30.13,North,360,9.0,9.0,51,0.00,,,0.00,Wunderground v.1.15,2013-04-29 00:00:00,
2013-04-28 20:02:00,60.7,42.5,30.14,North,360,9.0,10.0,51,0.00,,,0.00,Wunderground v.1.15,2013-04-29 00:02:00,
2013-04-28 20:04:00,60.7,42.5,30.13,North,360,9.0,10.0,51,0.00,,,0.00,Wunderground v.1.15,2013-04-29 00:04:00,
2013-04-28 20:06:00,60.7,42.5,30.14,North,360,8.0,10.0,51,0.00,,,0.00,Wunderground v.1.15,2013-04-29 00:06:00,
2013-04-28 20:10:00,60.7,43.0,30.14,North,360,8.0,8.0,52,0.00,,,0.00,Wunderground v.1.15,2013-04-29 00:10:00,
2013-04-28 20:12:00,60.7,43.0,30.14,North,360,8.0,8.0,52,0.00,,,0.00,Wunderground v.1.15,2013-04-29 00:12:00,
2013-04-28 20:18:00,60.7,43.5,30.14,North,360,8.0,13.0,53,0.00,,,0.00,Wunderground v.1.15,2013-04-29 00:18:00,
2013-04-28 20:20:00,60.6,43.4,30.14,North,360,8.0,13.0,53,0.00,,,0.00,Wunderground v.1.15,2013-04-29 00:20:00,
2013-04-28 20:22:00,60.6,43.9,30.14,North,360,9.0,13.0,54,0.00,,,0.00,Wunderground v.1.15,2013-04-29 00:22:00,
2013-04-28 20:24:00,60.7,43.9,30.14,North,360,8.0,13.0,54,0.00,,,0.00,Wunderground v.1.15,2013-04-29 00:24:00,
2013-04-28 20:30:00,60.5,44.2,30.14,North,360,8.0,8.0,55,0.00,,,0.00,Wunderground v.1.15,2013-04-29 00:30:00,
2013-04-28 20:32:00,60.5,44.7,30.14,North,360,8.0,10.0,56,0.00,,,0.00,Wunderground v.1.15,2013-04-29 00:32:00,
2013-04-28 20:36:00,60.5,44.7,30.14,North,360,8.0,11.0,56,0.00,,,0.00,Wunderground v.1.15,2013-04-29 00:36:00,
2013-04-28 20:38:00,60.4,45.1,30.15,North,360,8.0,11.0,57,0.00,,,0.00,Wunderground v.1.15,2013-04-29 00:38:00,
2013-04-28 20:40:00,60.4,45.1,30.15,North,360,8.0,8.0,57,0.00,,,0.00,Wunderground v.1.15,2013-04-29 00:40:00,
2013-04-28 20:44:00,60.5,45.2,30.15,North,360,6.0,12.0,57,0.00,,,0.00,Wunderground v.1.15,2013-04-29 00:44:00,
2013-04-28 20:46:00,60.4,45.5,30.15,North,360,7.0,12.0,58,0.00,,,0.00,Wunderground v.1.15,2013-04-29 00:46:00,
2013-04-28 20:48:00,60.3,45.5,30.15,North,360,7.0,12.0,58,0.00,,,0.00,Wunderground v.1.15,2013-04-29 00:48:00,
2013-04-28 20:52:00,60.2,45.4,30.16,North,360,8.0,9.0,58,0.00,,,0.00,Wunderground v.1.15,2013-04-29 00:52:00,
2013-04-28 20:54:00,60.2,45.8,30.16,North,360,8.0,9.0,59,0.00,,,0.00,Wunderground v.1.15,2013-04-29 00:54:00,
2013-04-28 20:58:00,60.3,45.9,30.16,North,360,7.0,9.0,59,0.00,,,0.00,Wunderground v.1.15,2013-04-29 00:58:00,
2013-04-28 21:00:00,60.2,45.8,30.16,North,360,7.0,7.0,59,0.00,,,0.00,Wunderground v.1.15,2013-04-29 01:00:00,
2013-04-28 21:02:00,60.1,45.7,30.16,North,360,6.0,9.0,59,0.00,,,0.00,Wunderground v.1.15,2013-04-29 01:02:00,
2013-04-28 21:04:00,60.1,45.7,30.16,North,360,7.0,9.0,59,0.00,,,0.00,Wunderground v.1.15,2013-04-29 01:04:00,
2013-04-28 21:10:00,59.9,46.0,30.16,North,360,8.0,15.0,60,0.00,,,0.00,Wunderground v.1.15,2013-04-29 01:10:00,
2013-04-28 21:12:00,59.8,45.9,30.17,North,360,9.0,15.0,60,0.00,,,0.00,Wunderground v.1.15,2013-04-29 01:12:00,
2013-04-28 21:14:00,59.8,45.9,30.17,North,360,9.0,15.0,60,0.00,,,0.00,Wunderground v.1.15,2013-04-29 01:14:00,
2013-04-28 21:16:00,59.7,45.8,30.17,North,360,8.0,15.0,60,0.00,,,0.00,Wunderground v.1.15,2013-04-29 01:16:00,
2013-04-28 21:18:00,59.7,45.8,30.17,North,360,8.0,15.0,60,0.00,,,0.00,Wunderground v.1.15,2013-04-29 01:18:00,
2013-04-28 21:20:00,59.7,45.8,30.17,North,360,7.0,7.0,60,0.00,,,0.00,Wunderground v.1.15,2013-04-29 01:20:00,
2013-04-28 21:22:00,59.7,45.8,30.17,North,360,7.0,12.0,60,0.00,,,0.00,Wunderground v.1.15,2013-04-29 01:22:00,
2013-04-28 21:24:00,59.6,45.7,30.17,North,360,8.0,12.0,60,0.00,,,0.00,Wunderground v.1.15,2013-04-29 01:24:00,
2013-04-28 21:28:00,59.5,45.6,30.16,North,360,8.0,12.0,60,0.00,,,0.00,Wunderground v.1.15,2013-04-29 01:28:00,
2013-04-28 21:34:00,59.5,45.6,30.16,North,360,8.0,11.0,60,0.00,,,0.00,Wunderground v.1.15,2013-04-29 01:34:00,
2013-04-28 21:38:00,59.4,45.5,30.16,North,360,7.0,11.0,60,0.00,,,0.00,Wunderground v.1.15,2013-04-29 01:38:00,
2013-04-28 21:40:00,59.4,45.5,30.16,North,360,7.0,8.0,60,0.00,,,0.00,Wunderground v.1.15,2013-04-29 01:40:00,
2013-04-28 21:42:00,59.4,45.5,30.16,North,360,7.0,8.0,60,0.00,,,0.00,Wunderground v.1.15,2013-04-29 01:42:00,
2013-04-28 21:48:00,59.1,45.7,30.16,North,360,9.0,11.0,61,0.00,,,0.00,Wunderground v.1.15,2013-04-29 01:48:00,
2013-04-28 21:50:00,59.1,45.7,30.16,North,360,9.0,9.0,61,0.00,,,0.00,Wunderground v.1.15,2013-04-29 01:50:00,
2013-04-28 21:54:00,59.1,45.7,30.16,North,360,9.0,13.0,61,0.00,,,0.00,Wunderground v.1.15,2013-04-29 01:54:00,
2013-04-28 21:58:00,59.1,45.7,30.16,North,360,9.0,13.0,61,0.00,,,0.00,Wunderground v.1.15,2013-04-29 01:58:00,
2013-04-28 22:00:00,59.1,45.7,30.16,North,360,8.0,8.0,61,0.00,,,0.00,Wunderground v.1.15,2013-04-29 02:00:00,
2013-04-28 22:02:00,59.2,45.3,30.16,North,360,8.0,8.0,60,0.00,,,0.00,Wunderground v.1.15,2013-04-29 02:02:00,
2013-04-28 22:04:00,59.2,45.3,30.16,North,360,7.0,8.0,60,0.00,,,0.00,Wunderground v.1.15,2013-04-29 02:04:00,
2013-04-28 22:10:00,59.1,45.2,30.16,North,360,6.0,6.0,60,0.00,,,0.00,Wunderground v.1.15,2013-04-29 02:10:00,
2013-04-28 22:12:00,59.1,45.2,30.16,North,360,6.0,9.0,60,0.00,,,0.00,Wunderground v.1.15,2013-04-29 02:12:00,
2013-04-28 22:14:00,59.1,45.2,30.16,North,360,5.0,9.0,60,0.00,,,0.00,Wunderground v.1.15,2013-04-29 02:14:00,
2013-04-28 22:16:00,59.1,45.2,30.17,North,360,5.0,9.0,60,0.00,,,0.00,Wunderground v.1.15,2013-04-29 02:16:00,
2013-04-28 22:20:00,59.1,45.2,30.17,North,360,5.0,8.0,60,0.00,,,0.00,Wunderground v.1.15,2013-04-29 02:20:00,
2013-04-28 22:22:00,59.0,45.1,30.17,North,360,6.0,8.0,60,0.00,,,0.00,Wunderground v.1.15,2013-04-29 02:22:00,
2013-04-28 22:26:00,59.0,45.1,30.16,North,360,6.0,9.0,60,0.00,,,0.00,Wunderground v.1.15,2013-04-29 02:26:00,
2013-04-28 22:28:00,59.0,45.1,30.16,North,360,6.0,11.0,60,0.00,,,0.00,Wunderground v.1.15,2013-04-29 02:28:00,
2013-04-28 22:32:00,58.9,45.0,30.16,North,360,7.0,11.0,60,0.00,,,0.00,Wunderground v.1.15,2013-04-29 02:32:00,
2013-04-28 22:34:00,58.8,44.9,30.16,North,360,7.0,11.0,60,0.00,,,0.00,Wunderground v.1.15,2013-04-29 02:34:00,
2013-04-28 22:36:00,58.9,45.0,30.16,North,360,7.0,11.0,60,0.00,,,0.00,Wunderground v.1.15,2013-04-29 02:36:00,
2013-04-28 22:42:00,58.8,44.5,30.16,North,360,6.0,6.0,59,0.00,,,0.00,Wunderground v.1.15,2013-04-29 02:42:00,
2013-04-28 22:44:00,58.7,44.4,30.16,North,360,6.0,7.0,59,0.00,,,0.00,Wunderground v.1.15,2013-04-29 02:44:00,
2013-04-28 22:46:00,58.7,44.4,30.16,North,360,6.0,7.0,59,0.00,,,0.00,Wunderground v.1.15,2013-04-29 02:46:00,
2013-04-28 22:48:00,58.9,44.6,30.16,North,360,5.0,8.0,59,0.00,,,0.00,Wunderground v.1.15,2013-04-29 02:48:00,
2013-04-28 22:50:00,58.8,44.0,30.16,North,360,6.0,9.0,58,0.00,,,0.00,Wunderground v.1.15,2013-04-29 02:50:00,
2013-04-28 22:52:00,58.7,44.4,30.16,North,360,6.0,9.0,59,0.00,,,0.00,Wunderground v.1.15,2013-04-29 02:52:00,
2013-04-28 22:54:00,58.6,43.9,30.16,North,360,7.0,9.0,58,0.00,,,0.00,Wunderground v.1.15,2013-04-29 02:54:00,
2013-04-28 22:58:00,58.6,43.9,30.16,North,360,7.0,10.0,58,0.00,,,0.00,Wunderground v.1.15,2013-04-29 02:58:00,
2013-04-28 23:00:00,58.6,43.9,30.16,North,360,7.0,7.0,58,0.00,,,0.00,Wunderground v.1.15,2013-04-29 03:00:00,
2013-04-28 23:04:00,58.7,44.0,30.16,North,360,5.0,7.0,58,0.00,,,0.00,Wunderground v.1.15,2013-04-29 03:04:00,
2013-04-28 23:06:00,58.7,44.0,30.16,North,360,6.0,7.0,58,0.00,,,0.00,Wunderground v.1.15,2013-04-29 03:06:00,
2013-04-28 23:10:00,58.6,43.9,30.16,North,360,4.0,4.0,58,0.00,,,0.00,Wunderground v.1.15,2013-04-29 03:10:00,
2013-04-28 23:12:00,58.7,43.5,30.16,North,360,5.0,5.0,57,0.00,,,0.00,Wunderground v.1.15,2013-04-29 03:12:00,
2013-04-28 23:16:00,58.6,43.4,30.16,North,360,6.0,10.0,57,0.00,,,0.00,Wunderground v.1.15,2013-04-29 03:16:00,
2013-04-28 23:18:00,58.5,43.3,30.16,North,360,6.0,10.0,57,0.00,,,0.00,Wunderground v.1.15,2013-04-29 03:18:00,
2013-04-28 23:20:00,58.5,43.3,30.16,North,360,7.0,7.0,57,0.00,,,0.00,Wunderground v.1.15,2013-04-29 03:20:00,
2013-04-28 23:22:00,58.5,43.8,30.16,North,360,7.0,7.0,58,0.00,,,0.00,Wunderground v.1.15,2013-04-29 03:22:00,
2013-04-28 23:26:00,58.5,43.8,30.16,North,360,5.0,7.0,58,0.00,,,0.00,Wunderground v.1.15,2013-04-29 03:26:00,
2013-04-28 23:28:00,58.6,43.9,30.16,North,360,4.0,7.0,58,0.00,,,0.00,Wunderground v.1.15,2013-04-29 03:28:00,
2013-04-28 23:30:00,58.6,43.9,30.16,North,360,4.0,5.0,58,0.00,,,0.00,Wunderground v.1.15,2013-04-29 03:30:00,
2013-04-28 23:32:00,58.6,43.9,30.16,North,360,4.0,5.0,58,0.00,,,0.00,Wunderground v.1.15,2013-04-29 03:32:00,
2013-04-28 23:38:00,58.7,44.0,30.16,North,360,4.0,6.0,58,0.00,,,0.00,Wunderground v.1.15,2013-04-29 03:38:00,
2013-04-28 23:40:00,58.6,44.3,30.16,North,360,4.0,6.0,59,0.00,,,0.00,Wunderground v.1.15,2013-04-29 03:40:00,
2013-04-28 23:42:00,58.6,44.3,30.16,North,360,5.0,6.0,59,0.00,,,0.00,Wunderground v.1.15,2013-04-29 03:42:00,
2013-04-28 23:46:00,58.5,44.2,30.16,North,360,5.0,6.0,59,0.00,,,0.00,Wunderground v.1.15,2013-04-29 03:46:00,
2013-04-28 23:48:00,58.4,44.1,30.16,North,360,6.0,8.0,59,0.00,,,0.00,Wunderground v.1.15,2013-04-29 03:48:00,
2013-04-28 23:50:00,58.3,44.0,30.15,North,360,6.0,9.0,59,0.00,,,0.00,Wunderground v.1.15,2013-04-29 03:50:00,
2013-04-28 23:54:00,58.3,44.5,30.15,North,360,7.0,10.0,60,0.00,,,0.00,Wunderground v.1.15,2013-04-29 03:54:00,
2013-04-28 23:56:00,58.2,44.4,30.15,North,360,8.0,10.0,60,0.00,,,0.00,Wunderground v.1.15,2013-04-29 03:56:00,
2013-04-28 23:58:00,58.2,44.4,30.15,North,360,7.0,10.0,60,0.00,,,0.00,Wunderground v.1.15,2013-04-29 03:58:00,